Escanaba, MI

8:29 PM EDT on June 23, 2018 (GMT -0400)
Delta County

Weather History for KESC - October, 2017

Change the Weather History Date:

Tuesday, October 24, 2017

  Actual Average Record
Temperature  
Mean Temperature 42 °F -  
Max Temperature 46 °F 52 °F 67 °F (1963)
Min Temperature 37 °F 39 °F 21 °F (1981)
Degree Days  
Heating Degree Days 24    
Moisture  
Dew Point 39 °F    
Average Humidity 87    
Maximum Humidity 93    
Minimum Humidity 79    
Precipitation  
Precipitation 0.35 in - - ()
Sea Level Pressure  
Sea Level Pressure 29.46 in    
Wind  
Wind Speed 13 mph (NW)    
Max Wind Speed 24 mph    
Max Gust Speed 34 mph    
Visibility 10 miles    
Events Rain    
Averages and records for this station are not official NWS values.
T = Trace of Precipitation, MM = Missing Value Source: NWS Daily Summary

Daily Weather History Graph

Daily Weather History Graph

Search for Another Location

Airport or City:

Astronomy

Oct. 24, 2017 Rise Set
Actual Time 8:17 AM EDT 6:46 PM EDT
Civil Twilight 7:47 AM EDT 7:17 PM EDT
Nautical Twilight 7:12 AM EDT 7:51 PM EDT
Astronomical Twilight 6:37 AM EDT 8:26 PM EDT
Moon 12:44 PM EDT 10:12 PM EDT
Length of Visible Light 11h 30m
Length of Day
10h 29m
Waxing Crescent, 21% of the Moon is Illuminated
Oct 24
Waxing Crescent
Oct 27
First Quarter
Nov 4
Full
Nov 10
Last Quarter
Nov 18
New

Hourly Weather History & Observations

Time (EDT) Temp. Windchill Dew Point Humidity Pressure Visibility Wind Dir Wind Speed Gust Speed Precip Events Conditions
12:56 AM 46.9 °F - 44.1 °F 90% 29.55 in 10.0 mi WNW 6.9 mph - 0.00 in   Overcast
1:56 AM 46.9 °F - 45.0 °F 93% 29.53 in 10.0 mi WNW 4.6 mph - 0.01 in Rain Light Rain
2:56 AM 46.9 °F - 44.1 °F 90% 29.49 in 10.0 mi WNW 10.4 mph - 0.02 in Rain Light Rain
3:56 AM 46.0 °F 40.6 °F 41.0 °F 83% 29.46 in 10.0 mi NW 11.5 mph 19.6 mph 0.02 in Rain Light Rain
4:56 AM 46.9 °F - 43.0 °F 86% 29.41 in 10.0 mi NW 17.3 mph 23.0 mph 0.00 in Rain Light Rain
5:22 AM 46.4 °F 40.1 °F 42.8 °F 87% 29.32 in 10.0 mi NW 15.0 mph 23.0 mph 0.01 in Rain Light Rain
5:56 AM 46.0 °F 39.9 °F 43.0 °F 89% 29.41 in 10.0 mi NNW 13.8 mph 20.7 mph 0.04 in Rain Light Rain
6:12 AM 44.6 °F 38.4 °F 41.0 °F 87% 29.32 in 10.0 mi NNW 12.7 mph 24.2 mph 0.02 in Rain Rain
6:29 AM 44.6 °F 38.8 °F 42.8 °F 93% 29.32 in 10.0 mi NW 11.5 mph 24.2 mph 0.05 in Rain Rain
6:56 AM 44.1 °F 35.7 °F 41.0 °F 89% 29.38 in 10.0 mi NW 20.7 mph 32.2 mph 0.10 in Rain Rain
7:56 AM 44.1 °F 36.5 °F 39.9 °F 85% 29.36 in 10.0 mi NW 17.3 mph 29.9 mph 0.05 in Rain Light Rain
8:56 AM 44.1 °F 37.4 °F 41.0 °F 89% 29.36 in 9.0 mi NW 13.8 mph 25.3 mph 0.03 in Rain Light Rain
9:56 AM 44.1 °F 38.1 °F 41.0 °F 89% 29.36 in 10.0 mi NW 11.5 mph 23.0 mph 0.04 in Rain Light Rain
10:56 AM 45.0 °F 37.1 °F 42.1 °F 90% 29.36 in 10.0 mi NW 19.6 mph 33.4 mph 0.03 in Rain Light Rain
11:26 AM 44.6 °F - 39.2 °F 81% - - North - - 0.00 in   Unknown
11:56 AM - - - N/A% - - North - - 0.00 in   Unknown
12:56 PM - - - N/A% - - North - - N/A   Unknown
1:56 PM 42.1 °F 34.5 °F 37.9 °F 85% 29.41 in 10.0 mi NW 15.0 mph 25.3 mph N/A Rain Light Rain
2:56 PM 41.0 °F 32.2 °F 37.9 °F 89% 29.42 in 10.0 mi NW 18.4 mph 25.3 mph 0.00 in Rain Light Rain
3:56 PM 41.0 °F 31.9 °F 37.9 °F 89% 29.44 in 10.0 mi NW 19.6 mph 33.4 mph 0.00 in Rain Light Rain
4:56 PM 39.9 °F 30.2 °F 37.0 °F 89% 29.47 in 9.0 mi WNW 20.7 mph 27.6 mph 0.00 in Rain Light Rain
5:56 PM 39.9 °F 29.5 °F 36.0 °F 86% 29.50 in 10.0 mi WNW 24.2 mph 28.8 mph 0.01 in Rain Light Rain
6:56 PM 39.0 °F 28.5 °F 34.0 °F 82% 29.54 in 10.0 mi WNW 23.0 mph 34.5 mph 0.00 in Rain Light Rain
7:56 PM 37.9 °F 27.6 °F 35.1 °F 89% 29.57 in 10.0 mi NW 20.7 mph 29.9 mph 0.00 in Rain Light Rain
8:56 PM 37.0 °F 28.1 °F 34.0 °F 89% 29.59 in 10.0 mi WNW 15.0 mph 26.5 mph 0.00 in Rain Light Rain
9:56 PM 37.0 °F 27.0 °F 34.0 °F 89% 29.60 in 10.0 mi WNW 18.4 mph 26.5 mph 0.00 in   Overcast
10:56 PM 37.9 °F 28.5 °F 33.1 °F 83% 29.61 in 10.0 mi WNW 17.3 mph 24.2 mph 0.00 in   Overcast
11:43 PM 37.4 °F 28.2 °F 32.0 °F 81% 29.55 in 10.0 mi WNW 16.1 mph 24.2 mph 0.00 in   Mostly Cloudy
11:56 PM 37.9 °F 28.5 °F 32.0 °F 79% 29.55 in 10.0 mi WNW 17.3 mph 25.3 mph 0.00 in   Scattered Clouds